This is the latest recevied weather packets stored in our database for station/object KI5GCD-13. If no packets are shown the sender has not sent any weather packets the latest 10 day(s).
| Time | Temp. | Humidity | Pressure | Rain* | Wind** | Luminosity | Snow |
|---|---|---|---|---|---|---|---|
| 1777733387 | 13.89° C | 55% | 1017.6 hPa | 0 mm | 0.89 m/s, 339° | - | - |
| 1777733087 | 13.33° C | 58% | 1017.6 hPa | 0 mm | 1.79 m/s, 229° | - | - |
| 1777732787 | 13.89° C | 65% | 1017.7 hPa | 0 mm | 0.89 m/s, 34° | - | - |
| 1777732487 | 13.33° C | 67% | 1017.6 hPa | 0 mm | 0.45 m/s, 263° | - | - |
| 1777732187 | 13.33° C | 74% | 1017.7 hPa | 0 mm | 0 m/s | - | - |
| 1777731887 | 12.78° C | 73% | 1017.4 hPa | 0 mm | 0.45 m/s, 277° | - | - |
| 1777731587 | 12.78° C | 76% | 1017.6 hPa | 0 mm | 0 m/s | - | - |
| 1777731287 | 12.22° C | 75% | 1017.5 hPa | 0 mm | 0 m/s | - | - |
| 1777730987 | 12.78° C | 73% | 1017.5 hPa | 0 mm | 0.45 m/s, 245° | - | - |
| 1777730687 | 12.22° C | 79% | 1017.3 hPa | 0 mm | 0 m/s | - | - |
| 1777730387 | 11.67° C | 76% | 1017.3 hPa | 0 mm | 0.45 m/s, 269° | - | - |
| 1777730088 | 11.67° C | 78% | 1017.2 hPa | 0 mm | 0.45 m/s, 268° | - | - |
| 1777729787 | 10.56° C | 82% | 1017.2 hPa | 0 mm | 0.45 m/s, 209° | - | - |
| 1777729487 | 10° C | 85% | 1017.5 hPa | 0 mm | 0 m/s | - | - |
| 1777729187 | 10° C | 87% | 1017.4 hPa | 0 mm | 0.45 m/s, 319° | - | - |
| 1777728888 | 9.44° C | 90% | 1017.2 hPa | 0 mm | 0 m/s | - | - |
| 1777728587 | 8.89° C | 94% | 1017.4 hPa | 0 mm | 0 m/s | - | - |
| 1777728287 | 8.33° C | 95% | 1017.1 hPa | 0 mm | 0 m/s | - | - |
| 1777727987 | 7.78° C | 96% | 1017.1 hPa | 0 mm | 0 m/s | - | - |
| 1777727687 | 7.22° C | 98% | 1017.1 hPa | 0 mm | 0 m/s | - | - |
| 1777727387 | 7.22° C | 99% | 1017.1 hPa | 0 mm | 0 m/s | - | - |
| 1777727087 | 6.67° C | 99% | 1017 hPa | 0 mm | 0 m/s | - | - |
| 1777726787 | 6.67° C | 99% | 1017 hPa | 0 mm | 0 m/s | - | - |
| 1777726487 | 6.11° C | 99% | 1017.1 hPa | 0 mm | 0 m/s | - | - |
| 1777726187 | 5.56° C | 99% | 1016.9 hPa | 0 mm | 0 m/s | - | - |
* Rain latest hour (hover to see other rain measurements)
** Current wind speed in m/s (hover to see current wind gust speed)